Date,TemperatureHighF,TemperatureAvgF,TemperatureLowF,DewpointHighF,DewpointAvgF,DewpointLowF,HumidityHigh,HumidityAvg,HumidityLow,PressureMaxIn,PressureMinIn,WindSpeedMaxMPH,WindSpeedAvgMPH,GustSpeedMaxMPH,PrecipitationSumIn
2013-1-1,12.5,3.9,-8.6,9.0,-0.8,-12.9,86,80,67,30.29,30.14,0,0,0,0.00
2013-1-2,20.7,16.9,12.5,14.5,12.2,9.1,89,82,70,30.14,30.03,0,0,0,0.00
2013-1-3,21.1,16.6,8.6,17.5,13.0,5.0,88,86,84,30.19,30.05,0,0,0,0.00
2013-1-4,26.2,17.9,8.8,19.1,13.4,5.5,90,83,73,30.19,30.00,0,0,0,0.00
2013-1-5,29.2,16.3,0.4,21.7,12.1,-3.4,91,83,70,30.19,29.88,0,0,0,0.04
2013-1-6,28.4,21.5,9.1,22.4,17.5,6.4,91,85,75,30.23,29.91,0,0,0,0.00
2013-1-7,35.4,22.9,8.2,26.6,18.0,5.3,92,82,69,30.20,29.92,0,0,0,0.00
2013-1-8,36.5,25.5,11.4,31.0,22.0,8.9,93,87,75,30.08,29.83,0,0,0,0.00
2013-1-9,35.3,30.3,19.7,31.1,24.4,16.5,88,79,68,30.40,29.83,0,0,0,0.01
2013-1-10,38.6,30.8,17.1,33.2,23.8,14.6,94,77,50,30.46,29.87,0,0,0,0.04
2013-1-11,39.8,36.2,34.1,39.0,35.1,32.9,97,96,94,29.87,29.47,0,0,0,0.22
2013-1-12,41.7,27.0,13.5,40.8,23.2,7.7,97,85,77,30.00,29.44,0,0,0,0.01
2013-1-13,14.6,12.2,6.2,10.1,7.0,1.8,84,79,73,30.23,29.95,0,0,0,0.00
2013-1-14,14.2,8.8,2.8,9.2,4.5,-0.7,87,82,77,30.43,30.23,0,0,0,0.00
2013-1-15,28.1,16.7,3.6,17.8,11.1,0.4,89,79,62,30.42,29.95,0,0,0,0.00
2013-1-16,30.6,23.9,15.2,26.6,18.2,6.2,90,79,58,30.13,29.67,0,0,0,0.00
2013-1-17,15.1,9.6,2.9,6.8,2.2,-2.4,85,72,65,30.41,30.13,0,0,0,0.00
2013-1-18,35.1,21.2,2.3,28.4,17.2,-1.7,92,85,73,30.41,29.76,0,0,0,0.06
2013-1-19,37.7,26.8,5.5,32.7,21.9,-2.4,93,82,61,29.98,29.56,0,0,0,0.02
2013-1-20,8.6,3.0,-1.7,-2.0,-4.8,-7.2,78,70,56,30.30,29.98,0,0,0,0.00
2013-1-21,0.9,-6.5,-10.7,-4.4,-13.9,-17.3,80,70,58,30.33,30.19,0,0,0,0.00
2013-1-22,0.2,-7.6,-13.5,-9.5,-14.2,-18.9,80,72,62,30.43,30.32,0,0,0,0.00
2013-1-23,12.3,2.3,-9.0,7.5,-3.6,-13.5,84,76,65,30.56,30.13,0,0,0,0.00
2013-1-24,9.8,2.6,-8.2,4.9,-4.2,-12.7,84,73,58,30.73,30.38,0,0,0,0.00
2013-1-25,18.4,13.9,6.7,13.8,9.7,2.3,88,83,76,30.37,29.94,0,0,0,0.00
2013-1-26,23.6,12.9,-2.9,13.8,6.6,-6.8,86,76,61,30.41,30.24,0,0,0,0.07
2013-1-27,30.9,25.4,20.0,29.4,20.7,13.5,94,82,68,30.31,29.85,0,0,0,0.00
2013-1-28,33.9,31.1,30.2,30.4,29.2,28.5,95,92,87,29.92,29.75,0,0,0,0.22
2013-1-29,37.2,34.2,30.6,36.2,32.5,28.9,96,93,87,29.76,29.48,0,0,0,0.28
2013-1-30,32.3,22.2,12.4,29.0,19.4,8.4,93,89,82,29.59,29.39,0,0,0,0.00
2013-1-31,12.3,6.9,0.2,8.4,1.6,-5.2,84,78,71,30.14,29.58,0,0,0,0.00
2013-2-1,1.3,-4.0,-12.2,-3.4,-10.2,-16.7,81,74,64,30.30,30.14,0,0,0,0.00
2013-2-2,12.0,3.7,-0.7,1.0,-2.9,-6.2,82,74,59,30.20,30.02,0,0,0,0.00
2013-2-3,13.8,7.8,-0.1,4.1,1.5,-4.5,85,75,61,30.05,29.95,0,0,0,0.00
2013-2-4,15.5,6.5,-4.6,2.2,-1.5,-8.8,84,70,52,30.06,29.91,0,0,0,0.00
2013-2-5,22.4,14.2,0.2,18.4,10.0,-3.5,91,83,71,30.12,29.73,0,0,0,0.00
2013-2-6,22.4,9.8,-10.0,19.9,6.3,-14.5,91,85,77,30.24,30.12,0,0,0,0.01
2013-2-7,25.8,24.1,21.6,24.1,22.0,18.1,94,92,86,30.22,30.05,0,0,0,0.00
2013-2-8,27.7,16.6,6.0,18.1,10.2,2.7,88,76,52,30.39,30.22,0,0,0,0.00
2013-2-9,24.4,15.2,3.3,22.3,12.4,0.2,92,88,84,30.39,30.08,0,-8,0,0.00
2013-2-10,35.6,29.7,24.2,34.5,28.2,22.0,96,94,91,30.09,29.27,0,0,0,0.00
2013-2-11,35.2,29.4,23.4,34.1,26.5,18.6,96,89,81,29.94,29.25,0,0,0,0.00
2013-2-12,28.0,21.0,17.0,20.8,16.9,13.7,93,84,74,30.02,29.80,0,0,0,0.00
2013-2-13,32.7,26.6,17.4,29.1,23.6,15.2,94,89,78,29.80,29.62,0,0,0,0.01
2013-2-14,31.2,26.4,15.1,29.0,22.1,8.9,95,84,72,30.06,29.58,0,0,0,0.00
2013-2-15,18.9,12.6,5.6,9.7,5.1,-0.2,83,72,61,30.23,30.03,0,0,0,0.00
2013-2-16,17.1,5.0,-9.3,3.6,-2.4,-13.3,87,72,51,30.23,30.17,0,0,0,0.00
2013-2-17,22.0,5.4,-19.1,13.3,-3.3,-24.2,84,68,48,30.24,29.93,11,4,16,0.00
2013-2-18,36.8,28.5,19.8,30.1,23.5,13.3,93,82,70,29.93,29.48,10,6,17,0.10
2013-2-19,27.5,10.6,4.0,24.7,4.1,-2.7,90,75,61,30.22,29.50,16,10,26,0.00
2013-2-20,25.2,13.5,4.0,10.3,5.2,-0.9,83,70,49,30.44,30.22,13,7,17,0.00
2013-2-21,26.7,13.4,-5.7,18.8,7.2,-9.8,88,76,61,30.53,30.17,17,6,26,0.00
2013-2-22,30.1,24.5,21.1,27.3,22.0,18.1,92,90,85,30.19,29.80,16,7,21,0.02
2013-2-23,23.2,21.2,19.3,21.0,19.1,17.1,92,91,90,29.82,29.79,8,4,10,0.00
2013-2-25,29.0,28.4,28.1,25.7,25.4,25.2,89,88,87,30.10,30.08,3,1,10,0.05
2013-2-26,34.9,30.3,22.7,27.8,25.3,20.5,93,82,74,30.10,29.81,19,10,28,0.02
2013-2-27,33.2,30.7,29.2,29.5,26.8,24.1,91,85,80,29.89,29.74,18,11,24,0.01
2013-2-28,31.0,27.5,21.6,26.4,20.6,15.2,85,75,64,30.20,29.88,16,10,22,0.01
2013-3-1,29.3,22.9,15.6,16.4,13.8,7.3,79,68,55,30.33,30.20,13,8,20,0.00
2013-3-2,30.6,18.6,5.6,12.7,7.3,1.7,88,63,37,30.32,30.19,11,4,13,0.00
2013-3-3,32.4,14.3,-6.7,9.0,1.7,-11.5,88,61,30,30.21,30.10,7,3,11,0.01
2013-3-4,31.2,19.7,0.5,17.6,9.6,-5.5,85,66,39,30.17,30.09,12,6,17,0.00
2013-3-5,29.2,26.2,23.3,23.8,18.7,12.9,85,73,58,30.13,30.01,16,8,24,0.00
2013-3-6,32.4,25.8,16.1,22.6,18.3,10.9,84,73,60,30.33,30.27,11,6,18,0.01
2013-3-7,34.9,19.7,1.5,19.7,11.7,-2.2,89,72,51,30.44,30.33,7,2,9,0.00
2013-3-8,40.4,26.8,13.5,28.2,20.3,10.2,91,77,59,30.46,30.24,7,3,11,0.00
2013-3-9,35.6,32.5,26.2,33.6,29.2,22.3,95,88,80,30.25,29.78,11,6,18,0.26
2013-3-10,36.4,34.2,28.8,34.5,32.3,27.3,96,93,85,29.89,29.73,17,8,24,0.10
2013-3-11,30.6,28.0,23.3,28.5,25.9,20.3,95,91,86,29.74,29.59,21,8,26,0.01
2013-3-12,28.9,23.3,19.3,21.5,18.3,14.1,89,81,64,30.05,29.74,14,8,20,0.00
2013-3-13,32.5,22.8,13.8,15.3,9.6,5.4,86,59,33,30.30,30.05,12,8,16,0.01
2013-3-14,34.9,21.3,1.0,25.5,14.5,-3.5,92,76,50,30.29,30.03,6,3,8,0.00
2013-3-15,35.8,29.9,23.8,29.6,24.9,21.3,92,82,63,30.04,29.86,13,6,19,0.03
2013-3-16,26.7,20.8,15.8,21.4,14.2,7.5,91,76,59,30.17,29.88,12,7,17,0.09
2013-3-17,27.0,16.2,1.4,12.7,6.0,-3.0,85,65,43,30.31,30.06,10,-2,15,0.00
2013-3-18,30.7,22.1,15.3,27.4,18.7,11.6,89,86,79,30.07,29.54,21,8,28,0.06
2013-3-19,24.8,17.0,11.3,12.8,9.3,3.6,86,72,56,30.02,29.60,23,16,31,0.00
2013-3-20,19.1,11.8,3.1,6.5,2.2,-3.8,73,65,55,30.10,30.01,14,9,18,0.00
2013-3-21,26.9,15.9,3.5,15.6,8.2,-0.6,86,72,60,30.10,30.02,13,6,15,0.01
2013-3-22,38.4,20.5,-2.7,22.6,11.6,-7.2,89,70,47,30.11,30.03,7,2,10,0.01
2013-3-23,38.5,27.8,13.5,24.5,19.5,10.2,88,72,54,30.16,30.08,8,3,11,0.00
2013-3-24,30.4,28.6,27.5,23.3,22.6,21.3,82,78,71,30.10,29.98,13,5,18,0.00
2013-3-25,38.2,32.2,23.5,25.6,22.8,19.9,87,69,52,30.16,29.97,16,9,30,0.00
2013-3-26,39.1,32.4,24.8,25.9,22.6,18.6,83,68,50,30.26,30.16,8,4,18,0.00
2013-3-27,41.7,34.1,26.8,25.3,21.7,17.6,75,61,44,30.30,30.25,10,4,17,0.00
2013-3-28,41.8,30.8,14.4,26.2,20.1,11.2,90,66,48,30.35,30.27,12,5,18,0.00
2013-3-29,48.2,34.6,16.9,26.9,20.8,13.4,89,60,35,30.33,30.17,6,2,9,0.00
2013-3-30,39.1,35.7,31.8,37.6,31.8,23.0,95,86,68,30.17,29.78,6,3,15,0.74
2013-3-31,38.9,33.5,26.6,33.5,26.3,11.7,96,77,42,29.93,29.67,19,10,30,0.01
2013-4-1,32.0,25.8,19.7,15.4,11.4,8.5,66,55,40,30.16,29.93,16,9,29,0.00
2013-4-2,35.9,26.3,16.2,20.0,12.0,6.0,75,56,31,30.33,30.16,13,8,21,0.00
2013-4-3,41.4,27.5,9.6,24.1,14.8,6.0,87,61,31,30.47,30.17,6,2,13,0.00
2013-4-4,48.7,37.9,27.6,34.5,26.3,21.0,78,64,41,30.18,29.95,14,7,20,0.00
2013-4-5,41.6,33.7,24.4,29.9,21.4,17.8,92,62,40,30.25,30.09,9,4,17,0.00
2013-4-6,45.5,36.8,30.1,37.5,32.4,27.9,95,85,64,30.11,29.48,15,8,24,0.47
2013-4-7,44.2,37.1,33.6,34.5,31.5,29.6,91,80,67,29.93,29.57,13,6,22,0.00
2013-4-8,39.9,37.2,34.6,36.2,34.3,32.2,93,89,85,30.02,29.75,10,4,17,0.02
2013-4-9,38.6,36.8,33.4,36.1,33.1,23.0,95,87,63,30.12,29.98,15,9,24,0.30
2013-4-10,42.1,36.2,28.5,27.9,24.1,17.6,92,63,44,30.19,29.97,17,12,27,0.20
2013-4-11,36.6,32.5,28.5,30.7,25.6,18.3,91,77,51,29.99,29.67,23,15,44,0.14
2013-4-12,34.7,30.9,28.1,29.7,27.5,25.9,93,87,77,29.75,29.61,12,7,21,0.16
2013-4-13,33.9,29.9,26.0,27.1,23.9,21.3,90,78,65,29.99,29.74,14,8,19,0.02
2013-4-14,33.9,28.5,18.6,32.1,25.1,16.2,93,87,67,30.02,29.68,17,5,32,0.05
2013-4-15,44.1,37.3,33.8,37.5,31.8,28.6,95,81,58,29.91,29.60,21,7,27,0.28
2013-4-16,46.1,37.4,31.4,33.7,30.2,26.9,86,76,51,30.33,29.90,14,7,20,0.00
2013-4-17,41.8,36.1,29.7,33.9,29.3,25.5,93,77,63,30.36,29.93,20,8,33,0.02
2013-4-18,38.6,36.5,35.1,36.6,34.9,33.5,95,94,91,29.93,29.23,17,8,26,0.63
2013-4-19,35.1,30.1,24.3,33.8,25.3,18.2,95,82,65,29.91,29.16,17,11,29,0.07
2013-4-20,40.1,29.5,20.0,23.3,17.2,12.7,85,62,37,30.38,29.91,11,6,18,0.00
2013-4-21,38.4,33.5,26.3,33.7,28.2,18.6,92,81,63,30.45,30.16,14,7,28,0.11
2013-4-22,45.7,41.4,36.1,44.0,40.0,34.0,96,95,92,30.19,29.97,5,1,8,0.44
2013-4-23,40.6,35.6,28.5,39.4,31.2,24.9,96,84,68,30.03,29.84,0,0,0,0.27
2013-4-24,47.9,38.4,25.7,35.4,29.2,22.8,93,71,52,30.02,29.88,0,0,0,0.06
2013-4-25,45.0,36.9,31.4,34.9,31.5,28.6,94,81,59,30.22,29.90,0,0,0,0.11
2013-4-26,68.0,50.3,32.0,48.8,39.4,28.5,88,68,44,30.21,30.01,0,0,0,0.01
2013-4-27,71.2,56.3,39.2,54.3,47.5,36.5,96,74,48,30.13,29.94,0,0,0,0.00
2013-4-28,71.5,57.8,41.9,50.1,45.6,39.7,94,66,39,29.94,29.69,0,0,0,0.00
2013-4-29,71.7,59.6,50.1,59.0,52.9,44.8,96,80,58,29.75,29.63,0,0,0,0.10
2013-4-30,80.5,66.4,50.8,62.2,54.7,40.0,94,69,38,29.90,29.49,0,0,0,0.75
2013-5-1,55.7,48.6,37.0,48.8,42.8,32.1,95,81,64,30.35,29.87,0,0,0,0.21
2013-5-2,37.0,34.3,31.0,33.0,31.0,27.9,92,88,83,30.41,30.32,0,0,0,0.16
2013-5-3,36.8,33.6,30.7,35.2,31.6,28.0,94,92,89,30.33,30.10,0,0,0,0.31
2013-5-4,72.8,53.1,36.8,57.2,43.3,35.2,96,74,33,30.11,30.02,0,0,0,0.00
2013-5-5,72.6,56.6,41.4,50.5,42.5,36.2,90,64,31,30.08,29.98,0,0,0,0.00
2013-5-6,74.7,59.2,39.3,49.3,42.5,36.9,93,59,28,30.07,29.95,0,0,0,0.00
2013-5-7,79.1,64.5,45.0,50.8,42.0,30.8,89,49,18,30.03,29.92,0,0,0,0.00
2013-5-8,78.5,64.1,43.6,50.5,44.4,39.6,91,53,27,29.98,29.89,0,0,0,0.00
2013-5-9,62.8,52.7,40.0,52.0,45.7,38.1,93,79,53,30.01,29.87,0,0,0,0.70
2013-5-10,64.3,49.2,36.7,40.6,35.7,27.0,93,64,26,30.03,29.85,0,0,0,0.00
2013-5-11,51.1,43.6,35.4,41.7,32.7,25.3,82,66,45,30.03,29.76,0,0,0,0.01
2013-5-12,52.1,40.8,32.3,29.2,24.6,19.6,76,54,31,30.12,30.03,0,0,0,0.00
2013-5-13,59.1,45.7,26.5,39.3,30.8,23.9,91,59,34,30.16,29.78,0,0,0,0.00
2013-5-14,79.8,63.6,42.9,55.6,46.5,35.2,81,56,34,29.79,29.42,0,0,0,0.00
2013-5-15,75.5,66.4,57.2,50.7,45.3,38.1,69,48,27,29.78,29.47,0,0,0,0.00
2013-5-16,78.8,64.8,46.5,51.3,44.6,36.1,92,53,27,29.97,29.77,12,3,15,0.00
2013-5-17,61.0,53.8,48.2,51.4,45.6,37.9,92,75,55,30.06,29.95,12,7,17,0.06
2013-5-18,75.0,61.9,50.2,64.8,55.8,47.7,91,81,67,30.05,29.86,11,5,17,0.04
2013-5-19,82.0,70.9,59.0,66.8,62.4,57.0,95,76,56,29.87,29.57,14,6,23,0.00
2013-5-20,79.5,69.2,59.2,63.7,60.4,56.4,92,75,52,29.67,29.49,13,5,18,0.15
2013-5-21,71.0,64.0,59.1,64.9,59.3,55.2,95,85,69,29.64,29.45,13,4,19,1.17
2013-5-22,59.8,54.9,49.7,57.5,53.1,47.8,96,94,88,29.87,29.61,14,6,21,0.66
2013-5-23,58.4,48.6,39.0,48.0,37.4,32.2,93,68,40,30.32,29.87,16,9,24,0.02
2013-5-24,63.9,49.0,31.7,45.3,37.2,29.8,93,67,39,30.44,30.27,6,2,11,0.00
2013-5-25,66.5,55.0,44.5,46.9,41.8,38.5,86,63,39,30.35,30.24,10,4,15,0.00
2013-5-26,65.0,54.4,38.8,45.0,40.5,36.1,92,62,41,30.29,30.13,13,6,23,0.00
2013-5-27,63.4,55.6,49.5,50.2,44.8,37.8,90,68,54,30.16,29.88,18,9,27,0.07
2013-5-28,56.2,53.5,50.1,54.5,51.3,47.4,96,92,89,29.88,29.69,9,5,13,0.11
2013-5-29,78.8,62.5,55.4,67.7,59.5,54.3,97,91,67,29.84,29.72,0,0,0,1.04
2013-5-30,78.9,68.9,61.3,70.8,65.3,60.2,96,89,69,29.78,29.56,0,0,0,0.43
2013-5-31,77.7,68.2,58.7,65.9,60.9,55.6,93,78,58,29.64,29.53,0,0,0,0.29
2013-6-1,69.3,59.4,47.1,61.7,55.1,43.8,95,86,71,29.74,29.54,0,0,0,0.02
2013-6-2,60.7,49.8,42.7,46.8,41.8,38.0,92,75,49,30.00,29.74,0,0,0,0.01
2013-6-3,69.3,56.0,38.7,51.1,43.8,37.1,96,67,40,30.08,29.96,0,0,0,0.00
2013-6-4,56.0,53.5,51.3,51.2,47.1,40.0,94,80,57,30.15,30.05,0,0,0,0.21
2013-6-5,55.4,51.5,49.5,53.3,49.6,47.8,95,93,85,30.12,29.93,0,0,0,1.79
2013-6-6,55.1,51.7,49.1,51.2,49.4,47.7,96,92,85,29.98,29.94,0,0,0,0.13
2013-6-7,67.6,56.7,47.7,55.7,50.2,44.8,93,80,59,30.01,29.90,0,0,0,0.00
2013-6-8,67.8,58.2,52.1,56.2,52.5,49.6,96,82,59,29.97,29.89,0,0,0,1.11
2013-6-9,71.0,59.7,50.2,60.9,54.7,48.1,94,84,68,29.99,29.81,0,0,0,0.17
2013-6-10,77.0,67.4,56.6,66.6,61.0,54.8,95,81,64,29.84,29.73,0,0,0,0.01
2013-6-11,77.6,67.6,56.0,65.6,61.3,54.3,96,81,61,29.84,29.75,0,0,0,0.00
2013-6-12,71.4,65.4,60.9,63.8,60.4,55.4,94,84,69,29.87,29.68,0,0,0,0.10
2013-6-13,74.3,64.4,54.9,59.5,54.8,50.6,94,73,48,30.06,29.76,0,0,0,0.00
2013-6-14,76.1,64.3,48.0,59.3,52.6,46.4,95,68,46,30.11,29.92,0,0,0,0.00
2013-6-15,70.9,64.8,59.6,66.6,61.8,55.6,95,90,74,29.96,29.74,0,0,0,0.12
2013-6-16,79.8,68.0,56.9,62.6,57.2,52.1,97,72,41,29.84,29.78,0,0,0,0.01
2013-6-17,75.9,64.2,52.6,61.7,56.7,50.1,94,78,53,29.97,29.80,0,0,0,0.15
2013-6-18,71.8,61.2,49.7,56.3,49.2,45.1,92,67,41,30.08,29.97,0,0,0,0.01
2013-6-19,76.9,63.0,46.0,60.4,52.0,43.3,93,69,50,30.10,29.99,0,0,0,0.00
2013-6-20,83.0,70.2,56.4,65.1,60.0,53.6,93,72,48,30.05,29.94,0,0,0,0.02
2013-6-21,72.8,66.9,63.1,67.1,63.5,60.2,95,89,78,30.06,29.66,0,0,0,1.51
2013-6-22,75.5,67.0,62.2,69.3,63.9,60.4,95,90,76,30.02,29.81,0,0,0,0.14
2013-6-23,81.1,72.6,63.5,72.4,66.2,61.3,95,81,60,29.86,29.74,0,0,0,0.00
2013-6-24,80.1,72.2,62.6,72.3,67.4,60.7,96,85,72,29.89,29.75,0,0,0,0.00
2013-6-25,81.9,72.0,62.9,70.2,66.2,61.4,96,83,61,29.82,29.70,0,0,0,0.00
2013-6-26,84.0,73.2,65.7,75.2,69.8,64.0,97,90,71,29.71,29.60,0,0,0,0.00
2013-6-27,82.3,72.1,64.2,71.4,65.2,60.7,97,81,52,29.73,29.60,0,0,0,0.15
2013-6-28,70.0,65.1,60.8,65.8,61.2,57.2,94,87,75,29.66,29.58,0,0,0,0.78
2013-6-29,70.5,63.1,57.8,62.8,57.2,49.6,95,82,60,29.89,29.65,0,0,0,0.12
2013-6-30,78.0,65.5,51.2,55.4,50.1,44.3,86,61,35,30.05,29.89,0,0,0,0.00
2013-7-1,81.0,68.4,53.0,59.1,54.4,49.2,89,64,36,30.13,30.05,0,0,0,0.00
2013-7-2,77.3,66.1,53.1,58.3,53.0,49.0,91,65,42,30.11,30.01,0,0,0,0.00
2013-7-3,75.7,62.3,48.9,60.4,53.4,46.1,95,75,38,30.06,29.96,0,0,0,0.00
2013-7-4,81.2,68.7,56.1,64.7,60.1,54.6,96,76,51,29.99,29.90,0,0,0,0.00
2013-7-5,83.6,72.0,58.3,64.5,60.9,56.6,95,71,44,29.95,29.85,0,0,0,0.00
2013-7-6,86.6,75.2,62.0,69.1,64.9,59.6,93,72,50,29.91,29.83,0,0,0,0.00
2013-7-7,86.2,75.2,68.6,73.2,68.5,64.2,91,80,58,29.86,29.78,0,0,0,0.04
2013-7-8,85.9,74.7,66.6,73.1,69.2,62.5,96,84,59,29.90,29.78,0,0,0,2.31
2013-7-9,81.3,73.4,66.9,73.6,69.3,65.7,97,88,69,29.91,29.67,0,0,0,0.49
2013-7-10,74.0,67.9,57.8,68.6,58.5,54.5,93,73,55,29.97,29.72,0,0,0,0.00
2013-7-11,80.5,68.5,55.3,63.4,58.2,53.9,96,73,42,30.07,29.97,0,0,0,0.00
2013-7-12,80.6,70.0,57.6,64.5,60.0,56.1,96,73,48,30.07,29.97,0,0,0,0.00
2013-7-13,80.6,70.1,60.1,66.0,61.9,57.5,92,77,55,30.09,29.98,0,0,0,0.00
2013-7-14,85.4,73.2,59.8,70.3,64.4,57.7,93,75,54,30.16,30.09,0,0,0,0.00
2013-7-15,85.3,75.6,62.1,74.0,68.7,60.5,96,80,62,30.21,30.14,0,0,0,0.00
2013-7-16,89.0,79.6,70.4,75.8,72.6,69.0,97,80,59,30.18,30.11,0,0,0,0.00
2013-7-17,88.9,80.0,70.6,74.7,71.6,68.8,96,77,55,30.18,30.06,0,0,0,0.00
2013-7-18,89.4,81.0,71.0,74.7,71.1,68.2,92,73,55,30.06,29.70,0,0,0,0.00
2013-7-19,84.8,77.9,67.1,74.0,66.5,59.3,86,69,48,29.76,29.60,0,0,0,0.00
2013-7-20,75.2,68.4,63.1,60.8,58.5,54.2,85,71,53,29.92,29.75,0,0,0,0.00
2013-7-21,71.1,63.0,58.0,61.6,56.3,51.8,93,79,71,29.96,29.84,0,0,0,0.00
2013-7-22,82.5,69.4,58.2,72.0,64.3,56.3,96,85,69,29.84,29.58,0,0,0,0.00
2013-7-23,69.9,61.6,51.6,58.8,52.0,48.2,88,72,51,29.98,29.70,0,0,0,0.00
2013-7-24,72.3,61.2,46.4,58.3,52.4,44.8,95,75,49,30.06,29.96,0,0,0,0.00
2013-7-25,78.4,65.4,51.7,65.6,59.1,49.9,96,81,57,29.97,29.85,0,0,0,0.00
2013-7-26,74.0,63.6,49.7,64.7,57.5,45.3,95,82,52,29.92,29.76,0,0,0,0.11
2013-7-27,57.9,51.1,45.5,50.0,46.5,41.9,93,84,71,29.92,29.81,0,0,0,0.01
2013-7-28,64.3,55.4,47.0,54.8,50.6,44.5,93,84,68,29.99,29.82,0,0,0,0.01
2013-7-29,76.5,62.0,46.1,59.2,52.6,44.2,95,73,49,30.10,29.98,0,0,0,0.01
2013-7-30,71.4,63.5,56.6,63.8,59.6,54.1,94,88,71,30.11,30.01,0,0,0,0.07
2013-7-31,75.8,67.3,58.3,66.3,60.9,54.3,96,81,59,30.01,29.87,0,0,0,0.00
2013-8-1,75.3,64.3,52.7,57.7,54.0,49.6,92,71,47,29.93,29.81,0,0,0,0.00
2013-8-2,75.0,64.3,53.5,60.4,54.8,51.0,95,74,46,29.95,29.78,0,0,0,0.00
2013-8-3,73.9,61.3,47.7,56.1,51.3,46.3,96,72,45,30.14,29.95,0,0,0,0.00
2013-8-4,72.5,60.3,44.7,55.9,51.0,43.1,96,74,46,30.20,30.04,0,0,0,0.00
2013-8-5,71.3,62.4,52.4,63.6,58.5,50.3,94,87,73,30.04,29.78,0,0,0,0.00
2013-8-6,78.9,68.5,60.3,64.6,60.6,55.9,96,78,48,29.80,29.63,0,0,0,0.31
2013-8-7,74.0,64.0,51.2,61.9,57.2,48.9,96,80,51,29.98,29.64,0,0,0,0.00
2013-8-8,75.5,61.2,45.0,57.2,51.8,43.7,96,74,44,30.02,29.94,0,0,0,0.01
2013-8-9,73.7,64.1,53.7,59.2,53.9,51.3,95,72,46,30.03,29.91,0,0,0,0.00
2013-8-10,71.5,63.2,53.3,56.6,54.2,50.8,94,74,51,30.11,30.03,0,0,0,0.00
2013-8-11,75.7,62.3,50.6,62.3,56.4,48.9,96,82,57,30.08,29.96,0,0,0,0.00
2013-8-12,76.8,63.4,51.5,62.6,55.2,47.8,97,77,46,30.01,29.88,0,0,0,0.00
2013-8-13,67.7,56.1,42.8,50.6,46.6,41.1,96,73,47,30.16,30.01,0,0,0,0.00
2013-8-14,71.8,55.7,38.0,51.4,45.8,36.4,96,73,41,30.20,30.08,0,0,0,0.00
2013-8-15,77.3,61.6,44.8,56.9,51.1,42.9,95,72,43,30.10,30.02,0,0,0,0.00
2013-8-16,79.7,64.5,46.2,61.5,54.5,44.6,96,73,45,30.14,30.08,9,2,11,0.00
2013-8-17,81.3,66.3,50.4,61.7,55.3,48.7,96,72,39,30.19,30.08,7,1,12,0.00
2013-8-18,81.5,66.1,49.1,62.0,55.9,47.4,96,73,43,30.14,30.00,7,2,15,0.00
2013-8-19,81.5,68.3,53.1,66.2,60.5,51.1,95,78,58,30.01,29.90,11,4,17,0.00
2013-8-20,86.3,74.0,60.7,70.8,65.9,59.0,96,77,59,29.95,29.85,8,2,15,0.00
2013-8-21,88.2,73.6,61.5,73.4,67.3,59.9,96,82,61,29.94,29.76,18,4,34,1.44
2013-8-22,81.0,68.4,56.9,65.2,58.7,54.3,97,74,43,30.08,29.93,7,2,11,0.02
2013-8-23,79.4,67.3,54.9,64.8,58.8,52.4,94,75,56,30.14,30.04,8,3,13,0.00
2013-8-24,82.4,69.7,55.3,69.9,61.8,53.9,96,77,57,30.16,30.00,10,3,15,0.00
2013-8-25,91.0,80.0,69.8,75.5,71.1,66.9,92,75,58,30.03,29.90,13,5,20,0.00
2013-8-26,89.7,77.5,67.8,78.2,71.8,65.6,96,83,63,30.01,29.82,6,1,11,1.28
2013-8-27,88.8,79.2,72.4,78.2,74.6,70.7,96,87,68,29.84,29.71,0,0,0,0.02
2013-8-28,84.6,74.5,69.1,71.4,69.4,68.0,98,85,60,29.98,29.81,0,0,0,0.01
2013-8-29,84.6,74.2,65.0,74.7,69.2,63.8,97,85,67,30.00,29.82,0,0,0,0.52
2013-8-30,79.3,72.8,62.8,73.9,67.6,59.8,97,85,67,29.85,29.73,0,0,0,0.00
2013-8-31,81.0,67.5,55.0,68.9,62.4,53.7,97,85,62,29.85,29.71,0,0,0,0.01
2013-9-1,75.9,68.9,63.1,66.7,63.1,57.9,96,83,63,29.82,29.66,0,0,0,0.14
2013-9-2,63.0,58.1,49.5,58.0,52.4,47.3,93,82,69,30.00,29.81,0,0,0,0.01
2013-9-3,72.5,57.5,41.3,56.7,50.4,40.0,97,79,51,30.06,29.95,0,0,0,0.00
2013-9-4,77.5,65.4,55.0,66.2,58.2,51.9,90,79,54,30.12,29.96,0,0,0,0.00
2013-9-5,73.1,59.5,46.0,56.3,51.7,43.6,95,77,47,30.25,30.13,0,0,0,0.01
2013-9-6,84.7,67.6,51.0,69.0,59.9,49.1,95,78,54,30.16,29.87,0,0,0,0.00
2013-9-7,87.0,73.6,62.0,73.3,66.6,57.4,96,80,56,29.99,29.81,0,0,0,0.04
2013-9-8,71.8,62.5,51.9,58.1,53.9,49.1,94,75,54,30.07,29.92,0,0,0,0.00
2013-9-9,85.1,71.2,60.5,75.5,65.7,55.2,91,83,68,29.92,29.62,0,0,0,0.00
2013-9-10,82.5,73.3,65.9,69.4,66.0,61.3,93,79,56,29.86,29.65,0,0,0,0.00
2013-9-11,81.3,69.1,55.9,65.4,60.3,52.6,94,75,45,29.95,29.86,0,0,0,0.00
2013-9-12,68.7,58.2,46.9,55.4,50.6,43.3,94,77,53,30.16,29.90,0,0,0,0.00
2013-9-13,66.2,51.1,39.7,46.6,42.7,38.1,96,76,44,30.23,30.09,0,0,0,0.01
2013-9-14,69.8,54.7,38.9,52.9,46.3,37.3,96,76,48,30.11,29.93,0,0,0,0.09
2013-9-15,63.2,54.3,42.7,57.1,51.2,40.1,96,89,78,30.28,29.91,0,0,0,0.34
2013-9-16,61.4,47.3,34.9,45.8,40.7,33.3,96,80,49,30.42,30.28,0,0,0,0.07
2013-9-17,66.2,51.6,34.9,54.3,46.6,33.5,97,85,56,30.34,30.03,0,0,0,0.04
2013-9-18,71.6,62.2,55.7,67.2,60.2,54.3,96,93,84,30.03,29.76,0,0,0,0.25
2013-9-19,78.3,69.5,62.3,72.2,66.7,61.1,97,91,80,29.78,29.60,0,0,0,0.26
2013-9-20,65.8,61.1,49.9,64.4,57.4,45.9,96,88,75,29.79,29.62,0,0,0,0.02
2013-9-21,58.2,50.3,40.5,47.1,44.7,38.6,94,82,62,29.97,29.78,0,0,0,0.00
2013-9-22,61.4,47.1,33.2,47.4,40.7,31.9,96,80,55,30.08,29.97,0,0,0,0.00
2013-9-23,66.3,52.7,41.0,53.8,46.9,39.1,95,82,63,30.10,29.99,0,0,0,0.01
2013-9-24,70.1,54.5,40.6,55.7,49.0,39.3,97,83,54,30.04,29.93,0,0,0,0.01
2013-9-25,68.9,53.3,41.7,54.4,48.0,40.6,97,84,56,30.01,29.92,0,0,0,0.01
2013-9-26,71.6,56.5,39.3,59.1,50.8,38.0,97,83,57,30.05,29.98,0,0,0,0.01
2013-9-27,78.3,63.6,51.0,60.7,53.7,47.8,90,72,44,30.06,29.92,0,0,0,0.00
2013-9-28,75.8,60.0,51.8,63.2,54.0,48.8,94,81,59,29.95,29.67,0,0,0,0.45
2013-9-29,69.0,54.5,41.8,53.0,47.6,40.4,97,80,48,29.98,29.88,0,0,0,0.01
2013-9-30,69.7,56.4,45.8,53.2,48.1,43.8,94,76,49,29.90,29.69,0,0,0,0.01
2013-10-1,75.3,61.9,53.0,60.6,50.7,40.3,93,69,36,29.91,29.66,0,0,0,0.00
2013-10-2,72.5,55.7,36.5,51.1,42.6,34.7,96,66,33,30.07,29.90,0,0,0,0.00
2013-10-3,64.0,56.8,49.5,58.0,52.5,45.1,94,86,60,29.95,29.81,0,0,0,0.75
2013-10-4,55.5,54.8,53.5,54.1,53.1,51.9,95,94,92,30.01,29.88,0,0,0,0.18
2013-10-5,60.0,57.1,53.3,58.9,56.0,51.8,97,96,94,29.98,29.67,0,0,0,1.97
2013-10-6,57.0,50.9,45.5,51.7,44.9,40.3,97,81,55,29.68,29.62,0,0,0,0.01
2013-10-7,61.6,50.2,40.1,48.3,43.1,38.4,94,79,47,30.02,29.66,0,0,0,0.01
2013-10-8,72.6,54.1,36.4,53.1,45.0,35.1,97,74,43,30.08,29.95,0,0,0,0.01
2013-10-9,71.5,57.6,45.8,55.8,49.7,43.4,94,77,51,30.10,30.01,0,0,0,0.00
2013-10-10,71.0,55.0,39.4,53.7,47.0,37.8,97,77,46,30.11,29.99,0,0,0,0.00
2013-10-11,72.2,59.7,47.3,60.2,52.8,45.1,95,79,59,30.01,29.80,0,0,0,0.00
2013-10-12,62.2,57.1,47.8,56.4,48.5,39.8,88,73,57,30.06,29.75,0,0,0,0.00
2013-10-13,58.1,47.6,36.2,43.1,39.4,34.1,93,75,45,30.39,30.06,0,0,0,0.00
2013-10-14,58.9,45.7,31.2,43.6,37.6,29.4,95,75,52,30.43,30.13,0,0,0,0.00
2013-10-15,53.9,49.9,46.9,52.8,47.6,42.2,96,92,82,30.13,29.66,0,0,0,0.88
2013-10-16,50.1,45.6,37.8,45.9,42.5,36.2,96,89,79,29.89,29.69,0,0,0,0.02
2013-10-17,53.6,41.6,30.7,44.4,37.4,29.4,96,86,61,29.89,29.75,0,0,0,0.00
2013-10-18,45.4,41.5,32.5,43.0,38.8,30.7,95,90,78,29.89,29.73,0,0,0,0.10
2013-10-19,48.7,37.9,31.9,39.2,34.5,30.5,95,88,61,29.86,29.65,0,0,0,0.04
2013-10-20,39.6,34.8,28.4,38.4,33.3,26.8,96,94,91,29.82,29.67,0,0,0,0.16
2013-10-21,38.4,34.3,32.4,36.0,28.7,23.4,94,80,65,29.86,29.71,0,0,0,0.00
2013-10-22,43.1,36.6,31.7,31.7,28.8,25.9,90,74,56,29.97,29.83,0,0,0,0.00
2013-10-23,38.5,33.1,28.1,31.5,26.3,24.0,85,76,58,30.01,29.93,0,0,0,0.00
2013-10-24,41.9,35.0,31.9,30.6,28.0,24.5,88,76,58,30.26,30.01,0,0,0,0.00
2013-10-25,50.7,40.3,32.1,39.8,31.8,27.5,89,73,57,30.28,29.69,0,0,0,0.00
2013-10-26,50.6,42.7,38.1,39.9,34.9,31.6,86,74,61,30.01,29.66,0,0,0,0.01
2013-10-27,53.3,41.0,30.3,36.9,32.4,27.4,90,73,49,30.10,29.79,0,0,0,0.00
2013-10-28,41.7,33.8,25.2,32.9,23.9,19.5,86,68,44,30.45,30.10,0,0,0,0.00
2013-10-29,39.2,33.3,25.0,35.6,28.9,21.2,91,84,75,30.46,30.15,0,0,0,0.00
2013-10-30,50.3,44.0,38.0,49.5,42.6,35.6,97,95,91,30.16,29.70,0,0,0,0.11
2013-10-31,54.2,49.4,42.3,53.3,48.5,41.0,97,96,95,29.70,29.21,0,0,0,0.16
2013-11-1,43.7,42.0,39.9,42.5,39.9,37.2,96,92,87,29.73,29.21,0,0,0,0.02
2013-11-2,42.0,37.8,29.1,37.4,34.7,27.4,94,89,78,30.14,29.73,0,0,0,0.01
2013-11-3,45.8,36.3,27.2,37.9,32.5,25.7,96,87,66,30.26,30.13,0,0,0,0.01
2013-11-4,47.4,43.6,40.3,43.7,39.2,35.8,95,85,74,30.13,29.94,0,0,0,0.07
2013-11-5,45.8,38.8,31.4,41.7,36.7,30.1,97,92,81,30.26,29.88,0,0,0,0.43
2013-11-6,38.4,34.3,27.6,35.1,30.4,23.7,95,86,70,30.13,29.81,0,0,0,0.25
2013-11-7,36.3,30.2,25.8,28.0,25.4,23.6,93,83,63,30.21,30.12,13,6,18,0.00
2013-11-8,38.7,33.1,27.1,35.0,29.4,25.1,93,86,75,30.23,29.71,13,6,27,0.21
2013-11-9,42.4,39.3,36.1,41.0,35.0,29.1,95,85,72,30.02,29.62,21,12,32,0.03
2013-11-10,42.9,37.9,34.7,33.0,30.5,27.3,93,75,64,30.27,30.02,16,8,29,0.01
2013-11-11,35.9,27.3,20.1,33.4,19.3,11.5,94,72,51,30.60,30.02,15,9,25,0.00
2013-11-12,26.7,20.1,13.9,14.8,13.0,9.6,84,74,56,30.72,30.50,13,8,18,0.00
2013-11-13,45.2,31.4,17.3,31.0,22.7,13.2,84,71,55,30.50,29.91,13,6,26,0.00
2013-11-14,38.9,34.3,30.8,32.1,28.0,24.6,92,78,69,29.91,29.79,10,3,15,0.00
2013-11-15,52.3,36.4,25.0,40.8,32.2,23.3,94,85,62,29.88,29.79,9,2,15,0.01
2013-11-16,52.9,43.0,34.5,51.8,41.1,32.1,97,93,84,29.79,29.31,14,6,24,0.44
2013-11-17,50.0,41.5,32.9,48.2,39.0,28.5,97,91,80,29.58,29.19,25,9,38,0.05
2013-11-18,32.8,29.4,25.1,28.5,22.7,19.4,85,76,67,30.25,29.58,25,14,39,0.00
2013-11-19,36.7,28.8,17.9,27.5,22.3,15.5,92,77,60,30.34,30.15,11,5,20,0.00
2013-11-20,37.1,34.2,32.5,32.0,30.0,27.3,95,85,74,30.16,30.06,10,6,18,0.00
2013-11-21,36.0,33.5,29.1,34.7,31.8,26.1,96,93,84,30.34,30.08,3,0,6,0.23
2013-11-22,29.2,24.8,18.2,26.6,18.3,10.1,91,77,62,30.49,30.34,0,0,0,0.03
2013-11-23,18.4,10.9,3.0,10.9,2.8,-2.7,82,70,56,30.74,30.45,9,1,10,0.00
2013-11-24,23.3,12.7,-1.8,13.7,4.5,-5.7,85,70,54,30.72,30.10,11,5,22,0.00
2013-11-25,35.1,29.9,23.3,28.8,22.8,12.9,82,75,63,30.10,29.89,15,9,22,0.00
2013-11-26,32.8,19.0,7.3,26.9,11.2,2.8,89,72,59,30.28,29.94,16,9,23,0.00
2013-11-27,23.5,15.7,6.3,17.0,10.9,2.6,90,81,68,30.33,30.20,10,4,14,0.00
2013-11-28,25.0,18.9,6.5,17.5,14.7,3.0,91,84,67,30.53,30.14,8,3,13,0.00
2013-11-29,27.0,14.2,-3.1,20.3,9.7,-7.0,91,82,71,30.63,30.32,7,3,14,0.01
2013-11-30,36.7,29.7,23.8,28.6,24.6,19.9,88,81,72,30.32,30.02,8,3,12,0.05
2013-12-1,35.2,28.1,19.1,29.1,23.6,16.6,93,84,66,30.17,29.99,4,1,6,0.02
2013-12-2,33.9,26.9,13.6,30.0,23.8,11.0,94,88,79,29.99,29.77,13,5,23,0.00
2013-12-3,32.5,30.6,28.1,31.0,28.8,26.1,94,93,90,29.83,29.72,14,10,26,0.00
2013-12-4,35.3,31.7,27.6,34.3,30.3,25.8,96,94,88,29.83,29.37,26,9,35,0.01
2013-12-5,29.6,11.6,2.2,26.6,7.2,-2.0,90,82,76,30.28,29.51,25,17,36,0.00
2013-12-6,6.3,-0.0,-5.2,-0.2,-4.6,-9.0,84,81,73,30.62,30.28,11,7,15,0.00
2013-12-7,0.4,-5.9,-11.8,-6.2,-10.6,-16.2,83,80,72,30.74,30.62,11,6,15,0.00
2013-12-8,11.1,3.1,-11.8,8.5,-0.4,-16.0,89,85,80,30.67,30.06,9,3,12,0.00
2013-12-9,11.5,3.3,-10.8,8.9,-1.0,-15.0,89,82,74,30.13,29.95,24,10,35,0.00
2013-12-10,6.4,0.7,-10.4,0.3,-3.8,-14.4,85,81,73,30.25,29.88,18,7,25,0.00
2013-12-11,2.5,-4.9,-10.4,-1.5,-10.2,-15.3,85,77,66,30.53,30.25,12,7,17,0.00
2013-12-12,13.9,5.4,-6.8,9.2,0.6,-11.2,84,80,75,30.46,30.20,12,6,17,0.00
2013-12-13,13.7,11.8,9.9,9.0,6.5,3.6,85,79,71,30.35,30.21,12,7,18,0.00
2013-12-14,20.7,13.6,8.7,15.8,9.9,4.6,89,85,80,30.34,29.96,12,6,17,0.00
2013-12-15,11.3,-0.3,-9.5,7.3,-5.7,-14.0,84,78,66,30.20,29.96,15,8,22,0.00
2013-12-16,12.8,2.1,-13.0,10.4,-1.7,-17.4,90,84,76,30.21,30.00,11,3,14,0.00
2013-12-17,28.1,20.9,9.8,24.1,16.3,4.7,92,83,71,30.07,29.86,17,9,24,0.00
2013-12-18,26.5,11.7,-1.3,16.9,6.7,-5.1,90,81,65,30.08,29.72,8,3,15,0.00
2013-12-19,24.4,16.5,3.1,19.8,12.3,-0.5,92,84,76,30.08,29.80,13,6,21,0.00
2013-12-20,21.2,18.6,15.3,18.2,15.5,12.3,90,87,83,30.06,29.86,10,6,17,0.00
2013-12-21,25.7,22.8,20.4,21.4,19.8,17.9,93,88,82,29.98,29.86,12,4,18,0.00
2013-12-22,25.6,22.2,18.0,22.1,18.7,15.5,92,86,79,30.14,29.85,12,5,18,0.00
2013-12-23,18.7,12.2,-2.9,16.5,9.5,-6.7,91,88,84,30.45,30.14,10,3,12,0.00
2013-12-24,14.2,0.7,-17.6,8.0,-3.3,-22.1,88,83,75,30.55,30.26,8,2,12,0.00
2013-12-25,16.1,12.2,8.4,13.4,9.1,5.1,90,87,83,30.26,30.08,9,4,12,0.00
2013-12-26,17.0,13.7,8.8,13.4,10.0,5.7,89,85,80,30.23,30.10,9,2,14,0.00
2013-12-27,32.6,24.3,16.2,28.9,21.7,13.3,93,90,84,30.24,29.91,10,3,15,0.00
2013-12-28,38.0,28.2,23.4,33.9,26.3,21.4,95,93,83,30.01,29.71,8,2,11,0.10
2013-12-29,31.1,8.6,-11.7,29.7,3.2,-16.6,95,78,66,30.27,29.75,16,9,28,0.00
2013-12-30,-2.9,-9.2,-21.8,-7.4,-15.4,-26.7,81,74,59,30.37,30.26,7,4,9,0.00
2013-12-31,-1.6,-6.5,-16.9,-7.2,-11.4,-22.6,84,79,72,30.49,30.24,14,5,18,0.00
2014-1-1,5.5,-1.3,-16.0,-2.5,-7.1,-21.0,82,76,67,30.56,30.45,10,4,14,0.00
2014-1-2,10.2,0.2,-15.9,-1.0,-6.4,-20.6,83,73,59,30.48,30.41,10,4,14,0.00